Time,TemperatureF,DewpointF,PressureIn,WindDirection,WindDirectionDegrees,WindSpeedMPH,WindSpeedGustMPH,Humidity,HourlyPrecipIn,Conditions,Clouds,dailyrainin,SoftwareType,DateUTC
2013-01-30 00:03:00,62.0,59.0,29.96,North,5,3.0,12.0,90,0.01,,,0.01,,2013-01-30 05:03:00,
2013-01-30 00:12:00,62.0,59.0,29.96,North,5,3.0,12.0,90,0.01,,,0.01,,2013-01-30 05:12:00,
2013-01-30 00:22:00,63.0,59.0,29.97,North,5,2.0,9.0,88,0.00,,,0.01,,2013-01-30 05:22:00,
2013-01-30 00:32:00,63.0,59.0,29.96,North,5,2.0,5.0,88,0.00,,,0.01,,2013-01-30 05:32:00,
2013-01-30 00:43:00,63.0,59.0,29.96,North,5,2.0,5.0,88,0.00,,,0.01,,2013-01-30 05:43:00,
2013-01-30 00:52:00,63.0,59.0,29.96,North,5,1.0,7.0,88,0.00,,,0.01,,2013-01-30 05:52:00,
2013-01-30 01:02:00,62.0,58.0,29.95,North,5,1.0,6.0,88,0.00,,,0.01,,2013-01-30 06:02:00,
2013-01-30 01:12:00,62.0,58.0,29.95,North,5,1.0,6.0,88,0.00,,,0.01,,2013-01-30 06:12:00,
2013-01-30 01:22:00,62.0,59.0,29.93,North,5,0.0,6.0,89,0.00,,,0.01,,2013-01-30 06:22:00,
2013-01-30 01:32:00,62.0,59.0,29.93,North,5,2.0,6.0,90,0.00,,,0.01,,2013-01-30 06:32:00,
2013-01-30 01:42:00,62.0,59.0,29.93,North,5,2.0,6.0,90,0.00,,,0.01,,2013-01-30 06:42:00,
2013-01-30 01:52:00,62.0,59.0,29.93,North,5,2.0,6.0,90,0.00,,,0.01,,2013-01-30 06:52:00,
2013-01-30 02:02:00,62.0,59.0,29.92,North,5,1.0,4.0,90,0.00,,,0.01,,2013-01-30 07:02:00,
2013-01-30 02:11:00,62.0,59.0,29.92,North,5,1.0,4.0,90,0.00,,,0.01,,2013-01-30 07:11:00,
2013-01-30 02:22:00,62.0,59.0,29.91,North,5,2.0,7.0,91,0.00,,,0.01,,2013-01-30 07:22:00,
2013-01-30 02:32:00,63.0,60.0,29.91,North,5,5.0,10.0,91,0.00,,,0.01,,2013-01-30 07:32:00,
2013-01-30 02:42:00,63.0,60.0,29.91,North,5,5.0,10.0,91,0.00,,,0.01,,2013-01-30 07:42:00,
2013-01-30 02:52:00,63.0,60.0,29.90,North,5,3.0,14.0,89,0.00,,,0.01,,2013-01-30 07:52:00,
2013-01-30 03:02:00,63.0,60.0,29.89,North,5,4.0,8.0,89,0.00,,,0.01,,2013-01-30 08:02:00,
2013-01-30 03:11:00,63.0,60.0,29.89,North,5,4.0,8.0,89,0.00,,,0.01,,2013-01-30 08:11:00,
2013-01-30 03:22:00,63.0,60.0,29.88,North,5,1.0,10.0,89,0.00,,,0.01,,2013-01-30 08:22:00,
2013-01-30 03:32:00,63.0,60.0,29.88,North,5,2.0,7.0,89,0.00,,,0.01,,2013-01-30 08:32:00,
2013-01-30 03:42:00,63.0,60.0,29.88,North,5,2.0,7.0,89,0.00,,,0.01,,2013-01-30 08:42:00,
2013-01-30 03:52:00,63.0,60.0,29.88,North,5,3.0,10.0,89,0.00,,,0.01,,2013-01-30 08:52:00,
2013-01-30 04:02:00,63.0,60.0,29.86,North,5,3.0,10.0,90,0.00,,,0.01,,2013-01-30 09:02:00,
2013-01-30 04:11:00,63.0,60.0,29.86,North,5,3.0,10.0,90,0.00,,,0.01,,2013-01-30 09:11:00,
2013-01-30 04:22:00,63.0,60.0,29.85,North,5,4.0,7.0,90,0.00,,,0.01,,2013-01-30 09:22:00,
2013-01-30 04:32:00,63.0,60.0,29.85,North,5,4.0,7.0,90,0.00,,,0.01,,2013-01-30 09:32:00,
2013-01-30 04:42:00,63.0,60.0,29.85,North,5,4.0,7.0,90,0.00,,,0.01,,2013-01-30 09:42:00,
2013-01-30 04:52:00,63.0,60.0,29.85,North,5,3.0,11.0,90,0.00,,,0.01,,2013-01-30 09:52:00,
2013-01-30 05:01:00,62.0,59.0,29.84,North,5,3.0,8.0,90,0.00,,,0.01,,2013-01-30 10:01:00,
2013-01-30 05:12:00,62.0,59.0,29.84,North,5,3.0,8.0,90,0.00,,,0.01,,2013-01-30 10:12:00,
2013-01-30 05:21:00,62.0,59.0,29.83,North,5,1.0,9.0,90,0.00,,,0.01,,2013-01-30 10:21:00,
2013-01-30 05:32:00,62.0,59.0,29.83,North,5,3.0,11.0,90,0.00,,,0.01,,2013-01-30 10:32:00,
2013-01-30 05:42:00,62.0,59.0,29.83,North,5,3.0,11.0,90,0.00,,,0.01,,2013-01-30 10:42:00,
2013-01-30 05:52:00,62.0,59.0,29.82,North,5,2.0,9.0,90,0.00,,,0.01,,2013-01-30 10:52:00,
2013-01-30 06:02:00,63.0,60.0,29.83,North,5,6.0,14.0,89,0.00,,,0.01,,2013-01-30 11:02:00,
2013-01-30 06:11:00,63.0,60.0,29.83,North,5,6.0,14.0,89,0.00,,,0.01,,2013-01-30 11:11:00,
2013-01-30 06:22:00,63.0,60.0,29.82,North,5,3.0,13.0,89,0.00,,,0.01,,2013-01-30 11:22:00,
2013-01-30 06:33:00,63.0,60.0,29.82,North,5,3.0,13.0,89,0.00,,,0.01,,2013-01-30 11:33:00,
2013-01-30 06:42:00,63.0,60.0,29.82,North,5,3.0,13.0,89,0.00,,,0.01,,2013-01-30 11:42:00,
2013-01-30 06:52:00,62.0,59.0,29.80,North,5,5.0,16.0,90,0.00,,,0.01,,2013-01-30 11:52:00,
2013-01-30 07:02:00,62.0,59.0,29.80,North,5,5.0,15.0,90,0.00,,,0.01,,2013-01-30 12:02:00,
2013-01-30 07:12:00,62.0,59.0,29.80,North,5,5.0,15.0,90,0.00,,,0.01,,2013-01-30 12:12:00,
2013-01-30 07:22:00,63.0,60.0,29.80,North,5,5.0,18.0,90,0.00,,,0.01,,2013-01-30 12:22:00,
2013-01-30 07:33:00,63.0,60.0,29.78,North,5,5.0,14.0,90,0.00,,,0.01,,2013-01-30 12:33:00,
2013-01-30 07:43:00,63.0,60.0,29.78,North,5,5.0,14.0,90,0.00,,,0.01,,2013-01-30 12:43:00,
2013-01-30 08:03:00,63.0,60.0,29.78,North,5,7.0,12.0,91,0.00,,,0.01,,2013-01-30 13:03:00,
2013-01-30 08:12:00,63.0,60.0,29.78,North,5,7.0,12.0,91,0.00,,,0.01,,2013-01-30 13:12:00,
2013-01-30 08:23:00,63.0,60.0,29.78,North,5,7.0,12.0,91,0.00,,,0.01,,2013-01-30 13:23:00,
2013-01-30 08:33:00,63.0,60.0,29.77,North,5,3.0,13.0,91,0.00,,,0.01,,2013-01-30 13:33:00,
2013-01-30 08:43:00,63.0,60.0,29.77,North,5,3.0,13.0,91,0.00,,,0.01,,2013-01-30 13:43:00,
2013-01-30 08:52:00,63.0,60.0,29.76,North,5,5.0,17.0,90,0.00,,,0.01,,2013-01-30 13:52:00,
2013-01-30 09:03:00,63.0,60.0,29.76,North,5,5.0,17.0,90,0.00,,,0.01,,2013-01-30 14:03:00,
2013-01-30 09:12:00,63.0,60.0,29.76,North,5,5.0,17.0,90,0.00,,,0.01,,2013-01-30 14:12:00,
2013-01-30 09:23:00,64.0,61.0,29.77,North,5,8.0,22.0,90,0.00,,,0.01,,2013-01-30 14:23:00,
2013-01-30 09:33:00,64.0,60.0,29.77,North,5,5.0,22.0,88,0.00,,,0.01,,2013-01-30 14:33:00,
2013-01-30 09:42:00,64.0,60.0,29.77,North,5,5.0,22.0,88,0.00,,,0.01,,2013-01-30 14:42:00,
2013-01-30 09:52:00,64.0,60.0,29.75,North,5,11.0,23.0,88,0.00,,,0.01,,2013-01-30 14:52:00,
2013-01-30 10:03:00,65.0,61.0,29.75,North,5,7.0,23.0,87,0.00,,,0.01,,2013-01-30 15:03:00,
2013-01-30 10:12:00,65.0,61.0,29.75,North,5,7.0,23.0,87,0.00,,,0.01,,2013-01-30 15:12:00,
2013-01-30 10:23:00,65.0,61.0,29.74,North,5,7.0,19.0,87,0.00,,,0.01,,2013-01-30 15:23:00,
2013-01-30 10:33:00,65.0,61.0,29.74,North,5,7.0,19.0,87,0.00,,,0.01,,2013-01-30 15:33:00,
2013-01-30 10:43:00,65.0,61.0,29.74,North,5,7.0,19.0,87,0.00,,,0.01,,2013-01-30 15:43:00,
2013-01-30 10:53:00,65.0,60.0,29.73,North,5,6.0,13.0,85,0.00,,,0.01,,2013-01-30 15:53:00,
2013-01-30 11:03:00,66.0,61.0,29.72,North,5,6.0,17.0,84,0.00,,,0.01,,2013-01-30 16:03:00,
2013-01-30 11:12:00,66.0,61.0,29.72,North,5,6.0,17.0,84,0.00,,,0.01,,2013-01-30 16:12:00,
2013-01-30 11:23:00,66.0,60.0,29.72,North,5,6.0,15.0,82,0.00,,,0.01,,2013-01-30 16:23:00,
2013-01-30 11:32:00,66.0,60.0,29.72,North,5,6.0,18.0,82,0.00,,,0.01,,2013-01-30 16:32:00,
2013-01-30 11:42:00,66.0,60.0,29.72,North,5,6.0,18.0,82,0.00,,,0.01,,2013-01-30 16:42:00,
2013-01-30 11:52:00,66.0,60.0,29.72,North,5,6.0,18.0,82,0.00,,,0.01,,2013-01-30 16:52:00,
2013-01-30 12:02:00,66.0,61.0,29.70,North,5,5.0,16.0,83,0.00,,,0.01,,2013-01-30 17:02:00,
2013-01-30 12:13:00,66.0,61.0,29.70,North,5,5.0,16.0,83,0.00,,,0.01,,2013-01-30 17:13:00,
2013-01-30 12:23:00,66.0,61.0,29.69,North,5,7.0,23.0,83,0.00,,,0.01,,2013-01-30 17:23:00,
2013-01-30 12:33:00,66.0,61.0,29.67,North,5,5.0,15.0,83,0.00,,,0.01,,2013-01-30 17:33:00,
2013-01-30 12:43:00,66.0,61.0,29.67,North,5,5.0,15.0,83,0.00,,,0.01,,2013-01-30 17:43:00,
2013-01-30 12:53:00,66.0,61.0,29.66,North,5,6.0,23.0,83,0.00,,,0.01,,2013-01-30 17:53:00,
2013-01-30 13:03:00,67.0,62.0,29.65,North,5,6.0,17.0,83,0.00,,,0.01,,2013-01-30 18:03:00,
2013-01-30 13:13:00,67.0,62.0,29.65,North,5,6.0,17.0,83,0.00,,,0.01,,2013-01-30 18:13:00,
2013-01-30 13:23:00,66.0,61.0,29.64,North,5,6.0,20.0,85,0.00,,,0.01,,2013-01-30 18:23:00,
2013-01-30 13:33:00,66.0,62.0,29.62,North,5,9.0,26.0,86,0.00,,,0.01,,2013-01-30 18:33:00,
2013-01-30 13:43:00,66.0,62.0,29.62,North,5,9.0,26.0,86,0.00,,,0.01,,2013-01-30 18:43:00,
2013-01-30 13:52:00,66.0,62.0,29.62,North,5,9.0,26.0,86,0.00,,,0.01,,2013-01-30 18:52:00,
2013-01-30 14:03:00,66.0,62.0,29.62,North,5,9.0,26.0,86,0.00,,,0.01,,2013-01-30 19:03:00,
2013-01-30 14:22:00,66.0,62.0,29.59,North,5,5.0,18.0,87,0.00,,,0.01,,2013-01-30 19:22:00,
2013-01-30 14:33:00,65.0,61.0,29.57,North,5,5.0,19.0,88,0.00,,,0.01,,2013-01-30 19:33:00,
2013-01-30 14:43:00,65.0,61.0,29.57,North,5,5.0,19.0,88,0.00,,,0.01,,2013-01-30 19:43:00,
2013-01-30 14:52:00,65.0,61.0,29.57,North,5,5.0,19.0,88,0.00,,,0.01,,2013-01-30 19:52:00,
2013-01-30 15:03:00,66.0,62.0,29.54,North,5,5.0,12.0,87,0.00,,,0.01,,2013-01-30 20:03:00,
2013-01-30 15:12:00,66.0,62.0,29.54,North,5,5.0,12.0,87,0.00,,,0.01,,2013-01-30 20:12:00,
2013-01-30 15:22:00,66.0,61.0,29.53,North,5,8.0,23.0,85,0.00,,,0.01,,2013-01-30 20:22:00,
2013-01-30 15:33:00,67.0,62.0,29.52,North,5,5.0,16.0,84,0.00,,,0.01,,2013-01-30 20:33:00,
2013-01-30 15:42:00,67.0,62.0,29.52,North,5,5.0,16.0,84,0.00,,,0.01,,2013-01-30 20:42:00,
2013-01-30 15:52:00,67.0,62.0,29.49,North,5,6.0,24.0,84,0.00,,,0.01,,2013-01-30 20:52:00,
2013-01-30 16:04:00,67.0,63.0,29.49,North,5,4.0,15.0,86,0.01,,,0.02,,2013-01-30 21:04:00,
2013-01-30 16:12:00,67.0,63.0,29.49,North,5,4.0,15.0,86,0.01,,,0.02,,2013-01-30 21:12:00,
2013-01-30 16:23:00,66.0,62.0,29.48,North,5,2.0,10.0,87,0.02,,,0.03,,2013-01-30 21:23:00,
2013-01-30 16:32:00,67.0,62.0,29.46,North,5,8.0,18.0,85,0.02,,,0.03,,2013-01-30 21:32:00,
2013-01-30 16:42:00,67.0,62.0,29.46,North,5,8.0,18.0,85,0.02,,,0.03,,2013-01-30 21:42:00,
2013-01-30 16:52:00,67.0,62.0,29.46,North,5,8.0,18.0,85,0.02,,,0.03,,2013-01-30 21:52:00,
2013-01-30 17:03:00,67.0,62.0,29.46,North,5,8.0,18.0,85,0.02,,,0.03,,2013-01-30 22:03:00,
2013-01-30 17:22:00,66.0,63.0,29.41,North,5,4.0,23.0,90,0.09,,,0.12,,2013-01-30 22:22:00,
2013-01-30 17:32:00,65.0,62.0,29.41,North,5,7.0,24.0,91,0.17,,,0.20,,2013-01-30 22:32:00,
2013-01-30 17:42:00,65.0,62.0,29.41,North,5,7.0,24.0,91,0.17,,,0.20,,2013-01-30 22:42:00,
2013-01-30 17:52:00,63.0,60.0,29.46,North,5,7.0,21.0,90,0.76,,,0.82,,2013-01-30 22:52:00,
2013-01-30 18:02:00,61.0,59.0,29.43,North,5,3.0,11.0,93,0.94,,,1.02,,2013-01-30 23:02:00,
2013-01-30 18:12:00,61.0,59.0,29.43,North,5,3.0,11.0,93,0.94,,,1.02,,2013-01-30 23:12:00,
2013-01-30 18:22:00,61.0,60.0,29.44,North,5,5.0,12.0,95,1.13,,,1.26,,2013-01-30 23:22:00,
2013-01-30 18:33:00,61.0,60.0,29.43,North,5,3.0,9.0,95,1.12,,,1.32,,2013-01-30 23:33:00,
2013-01-30 18:42:00,61.0,60.0,29.43,North,5,3.0,9.0,95,1.12,,,1.32,,2013-01-30 23:42:00,
2013-01-30 18:52:00,60.0,59.0,29.43,North,5,1.0,8.0,96,0.56,,,1.39,,2013-01-30 23:52:00,
2013-01-30 19:02:00,60.0,59.0,29.43,North,5,1.0,8.0,96,0.43,,,1.46,,2013-01-31 00:02:00,
2013-01-30 19:11:00,60.0,59.0,29.43,North,5,1.0,8.0,96,0.43,,,1.46,,2013-01-31 00:11:00,
2013-01-30 19:22:00,60.0,59.0,29.42,North,5,1.0,8.0,96,0.22,,,1.48,,2013-01-31 00:22:00,
2013-01-30 19:32:00,60.0,59.0,29.44,North,5,4.0,10.0,96,0.17,,,1.49,,2013-01-31 00:32:00,
2013-01-30 19:42:00,60.0,59.0,29.44,North,5,4.0,10.0,96,0.17,,,1.49,,2013-01-31 00:42:00,
2013-01-30 19:53:00,60.0,59.0,29.42,North,5,2.0,8.0,96,0.13,,,1.53,,2013-01-31 00:53:00,
2013-01-30 20:02:00,59.0,58.0,29.43,North,5,3.0,9.0,96,0.07,,,1.53,,2013-01-31 01:02:00,
2013-01-30 20:12:00,59.0,58.0,29.43,North,5,3.0,9.0,96,0.07,,,1.53,,2013-01-31 01:12:00,
2013-01-30 20:22:00,59.0,58.0,29.44,North,5,6.0,13.0,96,0.05,,,1.53,,2013-01-31 01:22:00,
2013-01-30 20:32:00,59.0,58.0,29.44,North,5,6.0,13.0,96,0.05,,,1.53,,2013-01-31 01:32:00,
2013-01-30 20:42:00,59.0,58.0,29.44,North,5,6.0,13.0,96,0.05,,,1.53,,2013-01-31 01:42:00,
2013-01-30 20:52:00,57.0,55.0,29.45,North,5,6.0,15.0,93,0.01,,,1.54,,2013-01-31 01:52:00,
2013-01-30 21:01:00,56.0,52.0,29.50,North,5,5.0,19.0,87,0.01,,,1.54,,2013-01-31 02:01:00,
2013-01-30 21:12:00,56.0,52.0,29.50,North,5,5.0,19.0,87,0.01,,,1.54,,2013-01-31 02:12:00,
2013-01-30 21:22:00,54.0,50.0,29.46,North,5,5.0,12.0,86,0.01,,,1.54,,2013-01-31 02:22:00,
2013-01-30 21:32:00,52.0,48.0,29.47,North,5,6.0,13.0,87,0.01,,,1.55,,2013-01-31 02:32:00,
2013-01-30 21:42:00,52.0,48.0,29.47,North,5,6.0,13.0,87,0.01,,,1.55,,2013-01-31 02:42:00,
2013-01-30 21:52:00,52.0,48.0,29.47,North,5,6.0,13.0,87,0.01,,,1.55,,2013-01-31 02:52:00,
2013-01-30 22:03:00,50.0,47.0,29.48,North,5,2.0,10.0,91,0.02,,,1.56,,2013-01-31 03:03:00,
2013-01-30 22:11:00,50.0,47.0,29.48,North,5,2.0,10.0,91,0.02,,,1.56,,2013-01-31 03:11:00,
2013-01-30 22:22:00,50.0,48.0,29.51,North,5,3.0,10.0,93,0.03,,,1.57,,2013-01-31 03:22:00,
2013-01-30 22:32:00,50.0,48.0,29.49,North,5,4.0,12.0,93,0.02,,,1.57,,2013-01-31 03:32:00,
2013-01-30 22:42:00,50.0,48.0,29.49,North,5,4.0,12.0,93,0.02,,,1.57,,2013-01-31 03:42:00,
2013-01-30 22:51:00,49.0,47.0,29.49,North,5,5.0,13.0,93,0.02,,,1.57,,2013-01-31 03:51:00,
2013-01-30 23:02:00,48.0,46.0,29.49,North,5,5.0,14.0,92,0.02,,,1.58,,2013-01-31 04:02:00,
2013-01-30 23:11:00,48.0,46.0,29.49,North,5,5.0,14.0,92,0.02,,,1.58,,2013-01-31 04:11:00,
2013-01-30 23:22:00,47.0,45.0,29.51,North,5,3.0,14.0,91,0.02,,,1.59,,2013-01-31 04:22:00,
2013-01-30 23:32:00,47.0,45.0,29.51,North,5,5.0,12.0,91,0.02,,,1.58,,2013-01-31 04:32:00,
2013-01-30 23:42:00,47.0,45.0,29.51,North,5,5.0,12.0,91,0.02,,,1.58,,2013-01-31 04:42:00,
2013-01-30 23:51:00,46.0,44.0,29.52,North,5,4.0,18.0,92,0.01,,,1.58,,2013-01-31 04:51:00,